Regional Weather Roundup
Issued by NWS

Home | Current Version | Previous Version | Graphics & Text | Print | Product List | Glossary On
Versions: 1 2 3 4 5 6 7 8 9 10 11 12 13 14 15 16 17 18 19 20 21 22 23 24 25 26 27 28 29 30 31 32 33 34 35 36 37 38 39 40 41 42 43 44 45 46 47 48 49 50
000
ASUS45 KTFX 280504
RWRMT
MONTANA HOURLY WEATHER ROUNDUP
NATIONAL WEATHER SERVICE GREAT FALLS MT
1004 PM MST THU NOV 27 2014

NOTE: "FAIR" INDICATES FEW OR NO CLOUDS BELOW 12000 FEET WITH NO
SIGNIFICANT WEATHER AND/OR OBSTRUCTIONS TO VISIBILITY.

* THESE STATIONS ARE NOT UNDER NWS QUALITY CONTROL. THEY DO NOT
   REPORT WEATHER SUCH AS PRECIPITATION OR FOG.

MTZ001>007-043-280600-
WEST OF THE DIVIDE
CITY           SKY/WX    TMP DP  RH WIND       PRES   REMARKS
KALISPELL      CLOUDY    45  37  74 S9        29.71S
MISSOULA       CLOUDY    46  37  71 CALM      29.82F
BUTTE          CLOUDY    45  32  60 SW7       29.90F
MULLAN PASS    LGT RAIN  36  36 100 SW18G32   29.78F VSB 2    WCI  26
* ESSEX        N/A       39  38  96 W1         N/A
* LINCOLN      N/A       35  35 100 NE2        N/A
* LOOKOUT PASS N/A       43  39  86 SE6G27     N/A
* POLSON       N/A       46  37  71 S4G19      N/A
* RONAN APT    MOCLDY    48  39  71 SE10G15    N/A
* SEELEY LAKE  N/A       40  36  86 SE2        N/A
* THOMP F APT  MOCLDY    38  29  70 NE3        N/A
* YAAK HILL    N/A       44  42  93 SE1G6      N/A
$$

MTZ008-052>055-280600-
SOUTHWEST MONTANA
CITY           SKY/WX    TMP DP  RH WIND       PRES   REMARKS
BOZEMAN        CLOUDY    46  34  63 SW8G17    29.88R
DILLON         CLOUDY    45  34  65 S7        29.94F
* W YELLOWSTON CLOUDY    37  29  73 SE1G7      N/A
* ENNIS APT    CLOUDY   N/A N/A N/A N/A        N/A
* THREE FORKS  CLOUDY    50  50 100 SW14G23    N/A
* BOULDER HILL N/A       45  27  49 S9G26      N/A
* MONIDA PASS  N/A       35  31  85 SE6        N/A   WCI  30
* RAYNOLDS PAS N/A       39  20  46 SE15       N/A   WCI  31
* WHITEHALL    N/A       51  35  54 SW18G32    N/A
* WISE RIVER   N/A       42  33  71 W12G28     N/A
$$

MTZ009>010-012-014-046-048-049-054-280600-
EAST SLOPES AND CENTRAL MONTANA
CITY           SKY/WX    TMP DP  RH WIND       PRES   REMARKS
CUT BANK       PTCLDY    43  36  76 SW22G29   29.62S
GREAT FALLS    CLEAR     48  36  63 SW17      29.66F
HELENA         CLOUDY    50  36  59 S12G23    29.77F
MALMSTROM AFB  CLEAR     45  36  71 SW14      29.68F
* DEARBORN     N/A       56  34  44 S14G29     N/A
* EAST GLACIER N/A       39  37  93 W19G26     N/A   WCI  29
* MONARCH      N/A       46  23  40 SW26G34    N/A
* PENDROY      N/A       43  37  79 W26G31     N/A
* ROGERS PASS  N/A       41  34  76 N8G14      N/A
* SAINT MARY   N/A       41  37  86 S7G16      N/A
* SWEET GRASS  N/A       25  25 100 NE8        N/A   WCI  16
$$

MTZ011-013-016-021-035-040-045-047-050-051-280600-
NORTH CENTRAL MONTANA
CITY           SKY/WX    TMP DP  RH WIND       PRES   REMARKS
HAVRE          FOG       28  27  96 N3        29.68F VSB 3/4
LEWISTOWN      MOCLDY    50  36  59 SW25G32   29.71F
* N BAR RANCH  CLEAR     52  32  47 W25G33    29.72F
* CHESTER      N/A       24  22  92 NE5G10     N/A   WCI  18
* DENTON       N/A       43  30  60 SW13       N/A
* GEYSER       N/A       49  30  48 SW17G23    N/A
* JUDITH GAP   N/A       47  31  54 W31G39     N/A
* LOMA         N/A       45  36  71 W7         N/A
$$

MTZ017>020-022>027-061-062-280600-
NORTHEAST MONTANA
CITY           SKY/WX    TMP DP  RH WIND       PRES   REMARKS
GLASGOW        FOG       23  21  92 E16       29.72F WCI  10
GLENDIVE       MOCLDY    28  28 100 E3        29.74S
JORDAN         PTCLDY    32  30  92 CALM      29.67F
SIDNEY         CLEAR     18  12  77 N7        29.80S WCI   9
WOLF POINT     MOCLDY    19  18  96 E9        29.77F WCI   8
* BEAVER HILL  N/A       36  30  79 SW6        N/A   WCI  31
* CIRCLE       N/A       26  24  92 NE2G9      N/A
* LINDSAY DVD  N/A       42  34  73 W7G13      N/A
* NAVAJO       N/A       15  13  92 E6         N/A   WCI   6
* SACO         N/A       24  23  96 NE9        N/A   WCI  14
$$

MTZ028>042-056>058-280600-
SOUTHCENTRAL AND SOUTHEAST MONTANA
CITY           SKY/WX    TMP DP  RH WIND       PRES   REMARKS
BAKER          PTCLDY    37  30  76 W5        29.75F WCI  33
BILLINGS       CLOUDY    46  30  54 SW12      29.76F
LIVINGSTON     CLOUDY    54  32  43 SW40G55   29.79F
MILES CITY     CLOUDY    37  32  82 S9        29.73F WCI  30
* LAUREL APT   CLOUDY    45  23  42 SW5        N/A
* ALZADA       N/A       39  29  67 E2         N/A
* HYSHAM       N/A       51  22  32 W6G11      N/A
* LAME DEER    N/A       48  27  44 S9         N/A
* REED POINT   N/A       48  32  54 NW12G18    N/A
* ROSCOE HILL  N/A       50  17  27 W8G24      N/A
$$

REGIONAL REPORTS...DAKOTAS
CITY           SKY/WX    TMP DP  RH WIND       PRES   REMARKS
WILLISTON      CLOUDY    16  10  77 NE3       29.82S
DICKINSON      PTCLDY    23  18  81 SE3       29.73F
BEACH          CLEAR     39  32  76 NW5       29.74S WCI  35
CROSBY         CLOUDY    14  10  84 E12       29.87R
BISMARCK       CLOUDY    12   9  88 E9        29.91F
GRAND FORKS    CLOUDY     9   3  76 S9        30.16R WCI  -4
FARGO          LGT SNOW  10   3  73 SE13      30.11F VSB 2 1/2 WCI  -5
BUFFALO SD     PTCLDY    27  21  78 CALM      29.71F
RAPID CITY     PTCLDY    37  27  67 CALM      29.85F
$$

REGIONAL REPORTS...WYOMING/IDAHO/WASHINGTON
CITY           SKY/WX    TMP DP  RH WIND       PRES   REMARKS
GILLETTE       MOCLDY    45  28  51 SW14      29.85F
SHERIDAN       CLOUDY    52  27  38 CALM      29.79F
CODY           PTCLDY    54  25  33 SW10G23   29.86F
YELLOWSTONE LA CLOUDY    34  28  79 CALM      30.11S
SALMON         CLOUDY    46  36  68 NE3       29.95S
MULLAN PASS    LGT RAIN  36  36 100 SW18G32   29.78S VSB 2    WCI  26
SAND POINT     CLOUDY    50  43  77 SW7       29.72S
SPOKANE        MOCLDY    48  43  83 SW23      29.72F
$$

REGIONAL REPORTS...SASKATCHEWAN
CITY           SKY/WX    TMP DP  RH WIND       PRES   REMARKS
SWIFT CURRENT  LGT SNOW  16  14  92 E16G22    29.70F VSB 1 1/4 WCI   1

$$




USA.gov is the U.S. government's official web portal to all federal, state and local government web resources and services.